Regional Weather Roundup
Issued by NWS Grand Forks, ND

Home | Current Version | Previous Version | Text Only | Print | Product List | Glossary Off
Versions: 1 2 3 4 5 6 7 8 9 10 11 12 13 14 15 16 17 18 19 20 21 22 23 24 25 26 27 28 29 30 31 32 33 34 35 36 37 38 39 40 41 42 43 44 45 46 47 48 49 50

214
ASUS43 KFGF 201910
RWRFGF
PRAIRIE TO PINES  WEATHER ROUNDUP
NATIONAL WEATHER SERVICE EASTERN NORTH DAKOTA/GRAND FORKS ND
100 PM CST SAT JAN 20 2018

 **SATELLITE DATA USED TO AUGMENT SKY COVER AT AUTOMATED STATIONS**
 *****  WEATHER ACROSS EASTERN NORTH DAKOTA  *****

CITY           SKY/WX    TMP DP  RH WIND       PRES   REMARKS
GRAND FORKS    FAIR      35  28  75 W7        29.81F
GRAND FRKS AFB FAIR      36  26  68 W7        29.80F
DEVILS LAKE    FAIR      34  27  75 W18       29.79F WCI  23
FARGO          FAIR      36  31  82 SW8       29.83F
WAHPETON ARPT  FAIR      36  32  87 W6        29.85F
$$

 ***** WEATHER ACROSS CENTRAL AND WESTERN NORTH DAKOTA  *****

CITY           SKY/WX    TMP DP  RH WIND       PRES   REMARKS
BISMARCK       FAIR      40  27  59 W12       29.87F
MINOT          FAIR      36  24  62 W12       29.79S
JAMESTOWN      FAIR      38  30  73 W5        29.82F
MINOT AFB      FAIR      35  24  65 W15       29.78S
GARRISON         N/A     37  24  59 W15       29.82F
WILLISTON      FAIR      31  21  66 W9        29.85F WCI  23
DICKINSON      FAIR      36  24  62 W16       29.84F
HETTINGER      FAIR      38  27  64 W15       29.89F
$$

 *****  OTHER AIRPORT OBSERVATIONS IN OUR AREA  *****

CITY           SKY/WX    TMP DP  RH WIND       PRES   REMARKS
WALHALLA       FAIR      36  27  69 SW6       29.77S
GRAFTON AIRPOR FAIR      32  28  86 SW3       29.82S
VALLEY CITY AR FAIR      37  34  87 W12G17    29.83F
CANDO          FAIR      32  27  80 W16       29.80F WCI  21
CAVALIER APRT    N/A     34  28  80 S8        29.78F
GWINNER          N/A     45  30  57 NW12G17   29.85S
SHEYENNE NWR     N/A     41  32  70 W6        29.95S
ROLLA          FAIR      30  25  80 S7        29.75F WCI  23
 ***** THE ABOVE OBSERVATIONS ARE NON NWS ARE NOT QUALITY
       CONTROLLED AND MAY MIS-REPORT RAIN FOR SNOW...
$$

  *****  WEATHER ACROSS NORTHERN MINNESOTA  *****

CITY           SKY/WX    TMP DP  RH WIND       PRES   REMARKS
FLAG ISLAND    FOG       27  25  93 S13       29.76S VSB 1/2 WCI  16
WARROAD        FAIR      32  27  80 S3        29.78F
ROSEAU         FAIR      30  27  86 SW6       29.78F WCI  24
HALLOCK        FAIR      28  27  93 S7        29.79S WCI  21
THF RVR FALLS  FAIR      32  25  75 W6        29.81S
BAUDETTE       FAIR      34  28  79 SW3       29.77F
WASKISH        FAIR      28  25  86 W6        29.80S WCI  22
CROOKSTON      FAIR      30  27  86 W5        29.82F
STEPHEN NDAWN    N/A     30  25  80 S5          N/A
GREENBUSH NDAW   N/A     30  27  86 S7          N/A  WCI  23
$$
  *****  WEATHER ACROSS CENTRAL AND WEST MINNESOTA  *****

CITY           SKY/WX    TMP DP  RH WIND       PRES   REMARKS
FOSSTON        FAIR      34  27  75 SW6       29.82S
BEMIDJI        FAIR      32  27  82 CALM      29.79F
PARK RAPIDS    FAIR      31  28  89 W6        29.80F
ELBOW LAKE     FAIR      37  31  79 W12       29.85S
WADENA         FAIR      36  27  69 W10       29.82R
DETROIT LAKES  FAIR      34  28  80 W3        29.83S
MOORHEAD       FAIR      36  30  80 W6        29.85S
FERGUS FALLS   FAIR      34  34 100 NW7       29.83F
MORRIS MN      FAIR      43  30  61 NW8       29.86R
STAPLES        FAIR      36  28  75 W6        29.82S
$$
  *****  WEATHER ELSEWHERE ACROSS MINNESOTA  *****

CITY           SKY/WX    TMP DP  RH WIND       PRES   REMARKS
DULUTH         FAIR      38  30  73 W6        29.79F
INTRNTL FALLS  FAIR      36  27  69 W5        29.78S
ELY            FAIR      36  28  75 SW5       29.77F
CLOQUET        FAIR      37  27  65 SW6       29.80F
WHEATON        NOT AVBL
BRAINERD       FAIR      35  28  75 SW6       29.82F
HIBBING        FAIR      33  28  81 CALM      29.79F
ALEXANDRIA     FAIR      40  29  64 W10       29.83F
SAINT CLOUD    CLOUDY    36  31  82 S5        29.84F
MINNEAPOLIS    CLOUDY    39  32  76 SW6       29.89S
$$

  *****  WEATHER ACROSS SOUTH DAKOTA  *****

CITY           SKY/WX    TMP DP  RH WIND       PRES   REMARKS
SIOUX FALLS    CLOUDY    44  34  67 CALM      29.87F
BROOKINGS      NOT AVBL
WATERTOWN      CLOUDY    40  30  67 W5        29.87F
HURON          FAIR      44  33  65 NW3       29.89F
SISSETON         N/A     48  29  47 W8        29.85S
ABERDEEN       CLOUDY    45  34  65 W7        29.88F
MITCHELL       FAIR      41  34  76 N6        29.89F
PIERRE         LGT RAIN  39  38  96 NW9       29.91F
MOBRIDGE       PTSUNNY   45  32  60 W6        29.86F
RAPID CITY     CLOUDY    39  27  62 N9        29.90F
$$

  *****  SOME WEATHER IN NEARBY STATES *****

CITY           SKY/WX    TMP DP  RH WIND       PRES   REMARKS
GLASGOW MT     FAIR      27  17  66 SW8       29.87F WCI  19
GREAT FALLS MT FAIR      37  19  48 SW17      29.86F
CHEYENNE WY    FOG       29  29 100 NE10      29.81F VSB 1/4 WCI  20
SCOTTSBLUFF NE CLOUDY    35  31  85 NE9       29.84F
OMAHA NE       FAIR      44  31  60 S8        29.84F
DES MOINES IA  FAIR      47  34  60 S9        29.86F
DAVENPORT IA   FAIR      47  34  60 SW13      29.91F
CHICAGO IL     PTSUNNY   44  31  60 SW9       29.91F
EAU CLAIRE WI  CLOUDY    38  31  76 S3        29.87F
LA CROSSE WI   FAIR      35  30  82 CALM      29.88F
$$

  *****  SOME NATIONAL WEATHER *****

CITY           SKY/WX    TMP DP  RH WIND       PRES   REMARKS
LA GUARDIA NY  PTSUNNY   54  24  31 W15G25    29.85R
RALEIGH NC     FAIR      55  32  41 SW6       30.12F
ATLANTA GA     FAIR      60  38  43 VRB5      30.22F
NEW ORLEANS LA PTSUNNY   69  54  58 SE13      30.20F
OKLAHOMA CITY  FAIR      62  42  47 S17G28    29.81F
ALBUQUERQUE NM FAIR      51  16  24 SW8       29.95F
SALT LAKE CITY CLOUDY    34  28  79 NW12      29.88F
LOS ANGELES CA FAIR      60  29  30 N20G28    30.06S
BOISE ID       FAIR      38  27  64 NW10      30.07S
SEATTLE WA     CLOUDY    44  37  76 S15       30.06S
$$

*** WEATHER ACROSS MANITOBA...SASKATCHEWAN AND ONTARIO ***
                ***ONTARIO***

CITY           SKY/WX    TMP DP  RH WIND       PRES   REMARKS
GERALDTON      CLOUDY     7   0  72 E3        29.82R
THUNDER BAY    CLOUDY    25  21  86 E10       29.82R WCI  15
SIOUX LOOKOUT  CLOUDY    19  16  86 VRB2      29.76R
TORONTO        PTSUNNY   41  28  60 SW13      29.84S
BIG TROUT LK   CLOUDY    -8 -13  77 CALM      29.89S
PICKLE LAKE    PTSUNNY    3  -4  72 E6        29.80F WCI  -8
DRYDEN         CLOUDY    27  23  86 W7        29.74S WCI  19
KENORA         CLOUDY    28  25  86 SW7       29.75S WCI  21
$$
                *** MANITOBA***

CITY           SKY/WX    TMP DP  RH WIND       PRES   REMARKS
BRANDON        MOSUNNY   28  23  80 W10       29.73F WCI  19
DAUPHIN        CLOUDY    23  19  86 CALM      29.73S
ISLAND LAKE    PTSUNNY   -4  -9  77 W2        29.88S
PILOT MOUND      N/A     32  25  74 SW8         N/A  WCI  25
THE PAS        FLURRIES   5   0  78 NE6       29.82S WCI  -6
THOMPSON       FLURRIES   1  -2  85 NE5       29.92R WCI  -8
WINNIPEG       PTSUNNY   27  23  86 S7        29.77F WCI  19
LYNN LAKE      FLURRIES   0  -2  92 SE7       29.87R WCI -13
CHURCHILL      PTSUNNY   -6 -11  77 N9        30.09R WCI -22
GILLAM         FLURRIES   1  -4  78 NE7       29.98R WCI -11
$$
                ***SASKATCHEWAN***

CITY           SKY/WX    TMP DP  RH WIND       PRES   REMARKS
ESTEVAN        PTSUNNY   30  21  69 SW16      29.79R WCI  19
KINDERSLEY     MOSUNNY   30  23  74 W6        29.77S WCI  24
LLOYDMINSTER   CLOUDY    25  23  93 W7        29.74S WCI  17
PRINCE ALBERT  CLOUDY    19  14  79 E2        29.77S
REGINA         MOSUNNY   32  25  74 W13       29.76S WCI  22
YORKTON        PTSUNNY   32  27  80 W12       29.69S WCI  23
N. BATTLEFORD  CLOUDY    28  23  80 W7        29.78R WCI  21
LA RONGE       FLURRIES   5   1  85 NW12      29.80S WCI -11
SASKATOON      CLOUDY    30  25  80 W10       29.77R WCI  21
SWIFT CURRENT  SUNNY     32  21  64 W14       29.75F WCI  22
$$
NOTE: THESE ARE AUTOMATED STATIONS WITH LIMITED QUALITY CONTROL
      "FAIR" INDICATES FEW OR NO CLOUDS BELOW 12,000 FEET WITH NO
      SIGNIFICANT WEATHER AND/OR OBSTRUCTIONS TO VISIBILITY.
      SKY/WX - SKY CONDITION AND SIGNIFICANT WEATHER.
      TMP - AIR TEMPERATURE.    DP   - DEWPOINT TEMPERATURE.
      RH  - RELATIVE HUMIDITY.  PRES - PRESSURE.
      HX  - HEAT INDEX.         WCI  - WIND CHILL INDEX.
$




USA.gov is the U.S. government's official web portal to all federal, state and local government web resources and services.